Palapa B4

operational
NORAD ID: 21964 Int'l Des: 1992-027 Owner: TELK Country: ID
HEOCIRCULAR

Über Palapa B4

Beschreibung wird geladen...

Live-Position

3D-Globus wird geladen...

Nächste Überflüge

Höhenverlauf

Altitude vs Time

uPlot chart will show altitude changes over time

Zweizeiliger Elementsatz

1 21964U 92027A 26061.64184696 -.00000186 00000-0 00000-0 0 9997
2 21964 13.1328 18.0693 0003421 329.8652 205.7161 0.99952506 46124
Epoch: 2. März 2026 • Age: 25 hours

Aktueller Status

Höhe 35863.6 km
Geschwindigkeit 3.07 km/s
Subsatellitenpunkt -9.24°S, 162.47°E
Startdatum 14. Mai 1992
Alter 33.8 years
Typ other

Technische Details

Klassifizierung Payload
Masse 713.00 kg
Trockenmasse 550.00 kg
Gesamtmasse 1256.00 kg
Länge 7.00 m
Durchmesser 2.20 m
Spannweite 7.00 m
Form Cyl
Hersteller HSES
Bus-Typ HS-376
Phasenstatus In Orbit
Besitzer/Staat TELK/ID

Große Konstellationen

Loading constellations...